Regional Weather Roundup
Issued by NWS

Home | Current Version | Previous Version | Graphics & Text | Print | Product List | Glossary On
Versions: 1 2 3 4 5 6 7 8 9 10 11 12 13 14 15 16 17 18 19 20 21 22 23 24 25 26 27 28 29 30 31 32 33 34 35 36 37 38 39 40 41 42 43 44 45 46 47 48 49 50
000
ASUS45 KCYS 170810
RWRWY

WYOMING REGIONAL WEATHER ROUNDUP
NATIONAL WEATHER SERVICE CHEYENNE WY
100 AM MST SAT FEB 17 2018

NOTE:  "FAIR" INDICATES FEW OR NO CLOUDS BELOW 12,000 FEET
WITH NO SIGNIFICANT WEATHER AND/OR OBSTRUCTIONS TO VISIBILITY.

WYZ001-170900-
YELLOWSTONE NATIONAL PARK

CITY           SKY/WX    TMP DP  RH WIND       PRES   REMARKS
LK YELLOWSTONE   N/A     15  10  80 VRB5      29.90R WCI   8
W YELLOWSTONE  NOT AVBL

$$
WYZ002>013-054>058-071-098>099-170900-
NORTHERN WYOMING

CITY           SKY/WX    TMP DP  RH WIND       PRES   REMARKS
JACKSON        FLURRIES  25  14  63 SW12      29.98R WCI  14
CODY           FAIR      27  17  66 NE9       29.86R WCI  18
GREYBULL       CLOUDY    20  15  81 W3        29.91R
WORLAND        FAIR       6   4  91 CALM      29.89S
SHERIDAN       LGT SNOW  29  24  82 NW29G40   29.85R WCI  14
BUFFALO        CLOUDY    26  11  52 SW3       29.81R
GILLETTE       FAIR      23  11  60 SW13      29.80S WCI  11
HULETT         PTSUNNY   23  14  68 SW9       29.80R WCI  13
NEWCASTLE      FAIR      14   9  79 N9        29.83F WCI   2

$$
WYZ014>020-022>026-101>103-170900-
CENTRAL WYOMING

CITY           SKY/WX    TMP DP  RH WIND       PRES   REMARKS
BIG PINEY      FLURRIES  20  16  84 CALM      29.99R
PINEDALE       PTSUNNY   16  14  93 CALM      29.98R
DUBOIS           N/A    N/A N/A N/A MISG        N/A
LANDER         FAIR      30   9  41 W12       29.90R WCI  20
RIVERTON       FAIR      20   7  57 W10       29.90R WCI   9
CASPER         FAIR      25  13  60 W22       29.86R WCI  10
DOUGLAS        CLOUDY    30  14  51 W17       29.85R WCI  18

$$
WYZ021-027>030-104>119-170900-
SOUTHERN WYOMING

CITY           SKY/WX    TMP DP  RH WIND       PRES   REMARKS
EVANSTON       CLOUDY    27  13  55 W20G26    30.09R WCI  13
FORT BRIDGER   FAIR      27  13  55 W28G44    30.06R WCI  12
ROCK SPRINGS   CLOUDY    28  10  46 W25G35    30.03R WCI  13
DIXON          CLOUDY    24  15  68 W6        30.07R WCI  17
RAWLINS        FAIR      24  10  55 W25G40    29.95R WCI   8
SARATOGA       FAIR      23  14  68 W17G23    29.97R WCI   9
LARAMIE        FAIR      20  14  77 W30G38    29.85S WCI   1
CHEYENNE       FAIR      29  13  51 W32G45    29.83R WCI  13
TORRINGTON     FAIR      32  16  51 NW12G26   29.85R WCI  23
PINE BLUFFS    FAIR      32  12  43 MISG      29.84F

$$



USA.gov is the U.S. government's official web portal to all federal, state and local government web resources and services.